SCP
0 0 0 0 0 0 0 0 0 0 0 0 0 0 0 0 0 0 0 0 -0 0 0 0 0 0 0 0 0 0 0 0 0 0 0 0 0 0
0 0 0 0 0 0 0 0 0 0 0 0 0 0 0 0 0 0 0 0 0 0 0 0 0 0 0 0 0 0 0 0 0 0 0 0 0 0
0 0 0 0 0 0 0 0 0 0 0 0 0 0 0 0 0 0 0 0 0 0 0 0 0 0 0 0 0 0 0 0 0 0 0 0 0 0
0 0 0 0 0 0 0 0 0 0 0 0 0 0 0 0 0 0 0 0 0 0 0 0 0 0 0 0 0 0 0 0 0 0 0 0 0 0
0 0 0 0 0 0 0 0 0 0 0 0 0 0 0 0 0 0 0 0 0 0 0 0 0 0 0 0 0 0 0 0 0 0 0 0 0 0
0 0 0 0 0 0 0 0 0 0 0 0 0 0 0 0 -0 -0 -0 0 0 0 0 0 0 0 0 0 0 0 0 0 0 0 0 0 0 0
0 0 0 0 0 0 0 0 0 0 0 0 0 0 0 -0 -0 0 0 0 0 0 0 0 0 0 0 0 0 0 0 0 0 0 0 0 0 0
0 0 0 0 0 0 0 0 0 0 0 0 0 0 0 0 0 0 0 0 0 0 0 0 0 0 0 0 0 0 0 0 0 0 0 0 0 0
0 0 0 0 0 0 0 0 0 0 0 0 0 0 0 0 0 0 0 0 0 0 0 0 0 0 0 0 0 0 0 0 0 0 0 0 0 0
0 0 0 0 0 0 0 0 0 0 0 0 0 0 0 0 0 0 0 0 0 0 0 0 0 0 0 0 0 0 0 0 0 0 0 0 0 0
0 0 0 0 0 0 0 0 0 0 0 0 0 0 0 0 0 0 0 0 0 0 0 0 0 0 0 0 0 0 0 0 0 0 0 0 0 0
0 0 0 0 0 0 0 0 0 0 0 0 0 0 0 0 0 0 0 0 0 0 0 0 0 0 0 0 0 0 0 0 0 0 0 0 0 0
0 0 0 0 0 0 0 0 0 0 0 0 0 0 0 0 0 0 0 0 0 0 0 0 0 0 0 0 0 0 0 0 0 0 0 0 0 0
0 0 0 0 0 0 0 0 0 0 0 0 0 0 0 0 0 0 0 0 0 0 0 0 0 0 0 0 0 0 0 0 0 0 0 0 0 0
0 0 0 0 0 0 0 0 0 0 0 0 0 0 0 0 0 0 0 0 0 0 0 0 0 0 0 0 0 0 0 0 0 0 0 0 0 0
0 0 0 0 0 0 0 0 0 0 0 0 0 0 0 0 0 0 0 0 0 0 0 0 0 0 0 0 0 0 0 0 0 0 0 0 0 0
0 0 0 0 0 0 0 0 0 0 0 0 0 0 0 0 0 0 0 0 0 0 0 0 0 0 0 0 0 0 0 0 0 0 0 0 0 0
0 0 0 0 0 0 0 0 0 0 0 0 0 0 0 0 0 0 0 0 0 0 0 0 0 0 0 0 0 0 0 0 0 0 0 0 0 0
0 0 0 0 0 0 0 0 0 0 0 0 0 0 0 0 0 0 0 0 0 0 0 0 0 0 0 0 0 0 0 0 0 0 0 0 0 0
0 0 0 0 0 0 0 0 0 0 0 0 0 0 0 0 0 0 0 0 0 0 0 0 0 0 0 0 0 0 0 0 0 0 0 0 0 0
0 0 0 0 0 0 0 0 0 0 0 0 0 0 0 0 0 0 0 0 0 0 0 0 0 0 0 0 0 0 0 0 0 0 0 0 0 0
0 0 0 0 0 0 0 0 0 0 0 0 0 0 0 0 0 0 0 0 0 0 0 0 0 0 0 0 0 0 0 0 0 0 0 0 0 0
0 0 0 0 0 0 0 0 0 0 0 0 0 0 0 0 0 0 0 0 0 0 0 0 0 0 0 0 0 0 0 0 0 0 0 0 0 0
Wind_Speed
8 7 5 4 3 3 4 4 5 3 3 3 3 4 2 1 5 2 3 11 15 16 16 17 18 19 19 20 21 21 21 22 22 22 23 24 24 24
7 9 7 5 5 4 5 3 3 4 3 2 2 2 1 3 8 5 6 15 14 15 17 18 19 20 20 21 22 23 23 24 24 24 24 24 24 25
9 10 10 8 7 5 5 5 4 4 5 3 2 2 4 5 7 7 7 7 7 16 19 20 20 21 22 22 24 25 25 26 26 26 26 26 26 26
14 13 12 10 10 8 7 7 6 6 6 5 3 2 4 4 7 8 8 7 7 15 19 21 21 21 22 24 25 26 27 28 28 28 29 29 29 28
16 16 15 14 13 9 9 8 7 7 6 5 4 4 5 6 7 7 7 6 7 10 17 18 19 21 23 25 26 27 28 29 29 30 30 30 30 30
14 15 15 16 15 13 10 10 8 7 6 6 5 5 5 6 5 4 5 3 6 8 11 12 16 20 22 25 26 27 28 30 31 31 31 31 32 31
15 14 14 16 18 15 11 11 11 8 6 5 5 4 4 2 3 4 7 6 6 6 4 6 10 10 12 17 22 25 28 30 31 32 32 33 33 33
17 15 14 15 20 22 20 19 16 11 9 6 5 4 3 3 3 6 8 9 6 2 7 10 10 12 10 9 20 28 29 31 32 33 34 34 35 35
18 17 14 14 16 15 18 22 19 19 17 10 7 5 3 3 5 7 7 9 10 10 12 13 7 12 11 13 25 29 31 32 34 35 36 36 36 36
17 18 17 18 17 17 14 12 10 9 9 5 3 3 4 5 6 7 8 8 10 9 9 10 8 11 12 10 22 29 30 31 33 35 36 37 37 37
15 16 16 17 24 25 15 12 11 8 11 12 10 9 9 10 9 3 3 4 7 5 4 6 7 12 12 11 14 23 26 28 31 34 36 38 38 37
12 14 17 19 25 27 15 13 12 10 8 6 5 4 4 5 10 5 3 3 4 5 3 4 7 10 12 6 7 10 14 23 31 35 37 38 38 26
12 12 13 24 25 26 19 12 13 10 7 6 4 2 2 3 4 4 5 5 6 8 6 5 9 10 12 15 15 14 13 13 15 20 26 33 36 32
12 12 14 26 25 24 17 16 18 11 6 5 3 2 2 2 3 5 7 8 10 14 13 12 12 13 15 20 20 15 12 12 14 17 17 25 30 36
9 16 20 27 24 18 19 18 10 7 5 4 3 2 2 3 5 5 7 9 12 13 14 15 15 15 15 19 21 21 21 18 14 15 16 17 18 18
12 15 22 24 17 11 8 9 6 6 5 5 4 2 1 2 4 5 6 6 8 9 11 14 16 18 17 18 19 22 20 18 15 16 18 18 18 18
15 10 9 11 9 8 6 6 5 6 5 4 3 2 1 3 5 5 5 6 8 12 12 8 11 15 18 19 20 22 22 21 18 18 18 21 19 18
21 14 13 12 11 10 9 7 6 6 5 5 4 3 2 3 5 5 6 7 9 11 12 11 12 15 17 15 18 22 21 20 19 18 18 21 23 17
15 13 12 12 10 10 9 8 6 6 5 4 3 2 2 3 5 6 7 8 10 11 11 10 11 13 18 24 13 14 20 22 21 19 18 20 24 20
11 11 11 10 10 9 9 8 7 6 5 4 3 2 2 3 5 7 7 9 11 13 13 10 10 11 15 22 26 21 22 23 21 22 20 20 22 27
11 10 9 10 9 9 8 7 7 6 5 4 3 3 3 3 5 7 8 12 12 12 14 14 13 18 17 17 21 22 17 23 28 24 24 23 23 21
10 9 9 9 9 8 8 7 6 5 5 4 3 3 3 4 6 8 9 10 10 12 15 15 15 14 14 17 22 26 27 23 23 31 33 33 25 23
10 9 8 9 8 7 7 7 6 5 4 4 3 3 4 4 6 8 10 11 11 13 15 16 15 14 15 17 21 23 29 29 22 21 18 25 36 41
Wind_Direction
176 169 161 160 154 138 139 148 154 184 237 207 193 180 184 175 329 335 311 313 322 326 326 325 323 322 321 320 317 315 312 310 306 303 300 298 296 294
173 169 165 158 157 158 162 156 145 157 218 260 254 217 312 325 324 336 314 317 319 319 321 321 320 320 320 318 316 315 313 311 308 305 303 300 297 295
176 176 173 161 164 161 159 162 167 163 205 255 294 321 329 319 318 313 304 303 303 314 316 316 317 318 317 315 314 312 311 309 307 305 303 300 298 296
181 177 174 168 168 169 170 176 180 181 186 209 251 263 261 273 281 284 290 292 293 302 308 312 314 313 312 310 309 308 306 304 301 299 296 294 293 291
183 182 177 173 176 175 176 178 179 182 184 195 223 233 248 251 260 261 260 263 270 290 300 304 306 307 306 306 305 303 302 300 298 295 292 288 285 284
182 182 179 181 180 174 176 178 175 176 178 196 218 230 236 240 249 267 294 264 287 289 288 299 305 306 302 300 298 296 294 292 291 290 288 285 281 278
181 183 183 183 180 176 175 176 176 174 173 190 213 222 232 258 302 310 314 312 289 273 291 302 302 295 292 291 291 288 286 286 285 284 283 282 279 276
180 180 180 180 184 183 186 184 182 173 174 182 206 223 258 298 317 321 321 326 321 291 310 304 299 295 293 285 289 290 288 287 285 283 281 279 277 274
181 176 175 178 179 179 186 187 192 193 186 183 203 222 262 294 306 306 304 303 297 309 312 298 291 290 291 290 294 292 291 290 287 284 281 279 276 273
185 180 176 173 181 178 183 187 186 196 203 206 203 215 235 254 265 285 301 301 293 290 293 287 293 290 293 287 290 290 292 291 290 287 283 279 276 273
185 181 178 173 181 179 175 177 181 192 211 215 220 234 256 282 294 305 305 305 296 291 282 272 292 305 296 283 283 291 296 298 299 296 291 286 281 276
181 182 184 176 180 179 172 174 180 187 189 199 216 249 274 283 289 279 250 254 272 289 273 273 295 319 304 270 277 287 292 292 291 290 288 286 283 279
179 179 184 181 182 184 177 180 188 181 175 162 155 180 235 254 264 257 246 237 250 260 271 294 290 295 285 292 294 293 287 287 288 286 286 285 282 277
182 178 181 181 181 186 183 185 192 168 134 136 145 182 221 244 258 266 267 263 258 266 275 280 279 283 285 286 292 294 287 285 286 285 284 283 280 276
179 178 177 179 179 185 188 184 163 139 138 145 163 186 208 255 278 279 279 276 272 270 273 273 274 278 276 280 287 291 294 293 283 280 280 278 276 275
171 175 175 176 164 146 161 162 141 146 151 153 159 176 237 278 279 281 283 292 287 278 271 274 276 278 280 281 283 286 287 286 286 284 281 276 271 267
158 157 163 161 150 147 144 146 148 150 151 149 151 162 234 272 278 284 282 286 282 290 295 286 280 282 280 283 285 283 285 287 285 285 283 279 271 266
161 165 169 169 167 165 164 161 161 158 150 147 153 169 221 267 282 285 284 280 282 285 290 297 301 300 291 270 254 275 282 284 287 285 281 280 279 270
169 171 171 171 168 164 163 159 154 149 142 146 153 166 219 267 282 284 284 284 283 284 287 293 297 298 298 298 282 262 284 290 290 285 279 274 276 277
173 171 169 166 161 158 156 150 143 141 142 146 151 163 209 254 271 275 277 278 284 289 292 289 286 287 288 292 295 292 282 282 287 287 285 279 274 274
165 164 162 158 155 150 145 140 140 142 142 144 160 190 211 231 255 266 273 278 282 289 295 296 292 291 289 287 286 289 288 286 286 287 289 285 281 274
155 155 152 149 146 143 141 140 141 144 150 161 181 200 215 233 256 266 271 277 283 290 294 296 299 298 294 292 292 296 301 298 290 286 281 276 275 272
142 143 142 142 140 138 138 142 145 151 160 171 189 208 221 239 253 264 270 274 285 295 301 303 304 301 297 295 295 297 301 305 305 302 290 282 277 270